Terug naar catalogus

MIDAS 4 DEB

LostPO
NORAD 29255·DEBRIS·🇺🇸 United States

Gelanceerd Oct 21, 1961 vanaf Vandenberg Space Force Base

Loading…

Volgende Passages (komende 24 uur)

TLE

VerouderdSource: Space-Track

Epoch: Oct 8, 2006, 06:28 UTC

1 29255U 61028J   06281.26958105 -.00000005  00000-0  10000-3 0  9993
2 29255  95.8576 218.6636 0820796 288.4033  62.9563  8.71055895 10478

Volg MIDAS 4 DEB in realtime met AllMySat

Download on the App Store